| time (UTC) | temp F | wind direction | speed knots | gust knots | rain 1hr in | rain 24hr in | rain mn in | humidity % | barometer mb |
| 20260507085559 | 80 | 350 | 0.9 | 1.7 | 0.00 | 0.00 | 0.00 | 82 | 1009.6 |
| 20260507085058 | 81 | 349 | 0.0 | 1.7 | 0.00 | 0.00 | 0.00 | 82 | 1009.7 |
| 20260507084603 | 81 | 355 | 0.0 | 1.7 | 0.00 | 0.00 | 0.00 | 82 | 1009.8 |
| 20260507084057 | 81 | 13 | 0.0 | 1.7 | 0.00 | 0.00 | 0.00 | 82 | 1009.8 |
| 20260507083557 | 81 | 13 | 0.0 | 1.7 | 0.00 | 0.00 | 0.00 | 82 | 1009.9 |
| 20260507083058 | 81 | 11 | 0.0 | 1.7 | 0.00 | 0.00 | 0.00 | 82 | 1010.0 |
| 20260507082558 | 81 | 15 | 0.0 | 1.7 | 0.00 | 0.00 | 0.00 | 82 | 1010.0 |
| 20260507082058 | 81 | 15 | 0.0 | 1.7 | 0.00 | 0.00 | 0.00 | 82 | 1010.1 |
| 20260507081559 | 81 | 15 | 0.0 | 1.7 | 0.00 | 0.00 | 0.00 | 82 | 1010.2 |
| 20260507081057 | 82 | 65 | 0.0 | 1.7 | 0.00 | 0.00 | 0.00 | 83 | 1010.2 |
| 20260507080558 | 82 | 80 | 0.0 | 1.7 | 0.00 | 0.00 | 0.00 | 83 | 1010.3 |
| 20260507080057 | 82 | 80 | 0.0 | 1.7 | 0.00 | 0.00 | 0.00 | 83 | 1010.5 |
| 20260507075557 | 82 | 80 | 0.0 | 1.7 | 0.00 | 0.00 | 0.00 | 83 | 1010.5 |
| 20260507075056 | 82 | 87 | 0.9 | 1.7 | 0.00 | 0.00 | 0.00 | 83 | 1010.6 |
| 20260507074557 | 82 | 79 | 0.0 | 1.7 | 0.00 | 0.00 | 0.00 | 84 | 1010.5 |
| 20260507074056 | 82 | 65 | 0.0 | 1.7 | 0.00 | 0.00 | 0.00 | 84 | 1010.7 |
| 20260507073558 | 82 | 9 | 0.9 | 1.7 | 0.00 | 0.00 | 0.00 | 84 | 1010.8 |
| 20260507073134 | 82 | 11 | 0.9 | 1.7 | 0.00 | 0.00 | 0.00 | 84 | 1010.9 |
| 20260507072557 | 82 | 17 | 0.9 | 1.7 | 0.00 | 0.00 | 0.00 | 84 | 1010.9 |
| 20260507072056 | 82 | 318 | 0.0 | 1.7 | 0.00 | 0.00 | 0.00 | 84 | 1011.0 |
| 20260507071557 | 82 | 318 | 0.0 | 1.7 | 0.00 | 0.00 | 0.00 | 84 | 1011.0 |
| 20260507071057 | 82 | 318 | 0.0 | 1.7 | 0.00 | 0.00 | 0.00 | 84 | 1011.1 |
| 20260507070557 | 83 | 318 | 0.0 | 1.7 | 0.00 | 0.00 | 0.00 | 84 | 1011.1 |
| 20260507070058 | 83 | 318 | 0.0 | 0.9 | 0.00 | 0.00 | 0.00 | 84 | 1011.3 |
| 20260507065559 | 83 | 318 | 0.0 | 1.7 | 0.00 | 0.00 | 0.00 | 84 | 1011.4 |
| 20260507065059 | 83 | 318 | 0.0 | 1.7 | 0.00 | 0.00 | 0.00 | 84 | 1011.4 |
| 20260507064612 | 83 | 318 | 0.0 | 1.7 | 0.00 | 0.00 | 0.00 | 83 | 1011.5 |
| 20260507064100 | 83 | 335 | 0.0 | 1.7 | 0.00 | 0.00 | 0.00 | 83 | 1011.7 |
| 20260507063559 | 83 | 355 | 0.0 | 1.7 | 0.00 | 0.00 | 0.00 | 83 | 1011.7 |
| 20260507063115 | 83 | 336 | 0.0 | 1.7 | 0.00 | 0.00 | 0.00 | 83 | 1011.7 |
| 20260507062600 | 83 | 9 | 0.0 | 1.7 | 0.00 | 0.00 | 0.00 | 83 | 1011.8 |
| 20260507062100 | 83 | 29 | 0.9 | 1.7 | 0.00 | 0.00 | 0.00 | 83 | 1011.9 |
| 20260507061600 | 83 | 13 | 0.9 | 1.7 | 0.00 | 0.00 | 0.00 | 83 | 1012.0 |
| 20260507061104 | 83 | 38 | 0.9 | 1.7 | 0.00 | 0.00 | 0.00 | 83 | 1012.0 |
| 20260507060559 | 83 | 9 | 0.9 | 2.6 | 0.00 | 0.00 | 0.00 | 83 | 1012.0 |
| 20260507060059 | 83 | 355 | 1.7 | 3.5 | 0.00 | 0.00 | 0.00 | 83 | 1012.0 |
| 20260507055600 | 83 | 360 | 1.7 | 3.5 | 0.00 | 0.00 | 0.00 | 83 | 1012.1 |
| 20260507055100 | 83 | 355 | 0.9 | 2.6 | 0.00 | 0.00 | 0.00 | 83 | 1012.1 |
| 20260507054601 | 83 | 13 | 0.9 | 2.6 | 0.00 | 0.00 | 0.00 | 83 | 1012.1 |
| 20260507054102 | 83 | 9 | 1.7 | 2.6 | 0.00 | 0.00 | 0.00 | 83 | 1012.0 |
| 20260507053601 | 83 | 324 | 0.9 | 1.7 | 0.00 | 0.00 | 0.00 | 83 | 1012.1 |
| 20260507053101 | 83 | 306 | 0.0 | 1.7 | 0.00 | 0.00 | 0.00 | 83 | 1012.1 |
| 20260507052600 | 83 | 282 | 0.9 | 1.7 | 0.00 | 0.00 | 0.00 | 83 | 1012.0 |
| 20260507052100 | 83 | 277 | 0.9 | 1.7 | 0.00 | 0.00 | 0.00 | 83 | 1012.1 |
| 20260507051600 | 83 | 302 | 0.9 | 1.7 | 0.00 | 0.00 | 0.00 | 83 | 1012.0 |
| 20260507051104 | 83 | 308 | 0.0 | 1.7 | 0.00 | 0.00 | 0.00 | 83 | 1012.1 |
| 20260507050600 | 83 | 272 | 0.9 | 1.7 | 0.00 | 0.00 | 0.00 | 83 | 1012.0 |
| 20260507045559 | 83 | 247 | 0.9 | 2.6 | 0.00 | 0.00 | 0.00 | 83 | 1011.9 |
| 20260507045100 | 83 | 289 | 0.9 | 2.6 | 0.00 | 0.00 | 0.00 | 83 | 1011.9 |
| 20260507044601 | 83 | 263 | 0.0 | 2.6 | 0.00 | 0.00 | 0.00 | 84 | 1012.0 |
| 20260507044059 | 83 | 311 | 0.9 | 2.6 | 0.00 | 0.00 | 0.00 | 84 | 1011.9 |
| 20260507043600 | 83 | 306 | 0.9 | 1.7 | 0.00 | 0.00 | 0.00 | 84 | 1011.9 |
| 20260507043101 | 83 | 342 | 0.0 | 2.6 | 0.00 | 0.00 | 0.00 | 84 | 1011.8 |
| 20260507042559 | 83 | 355 | 0.0 | 2.6 | 0.00 | 0.00 | 0.00 | 84 | 1011.7 |
| 20260507042103 | 83 | 332 | 0.9 | 2.6 | 0.00 | 0.00 | 0.00 | 84 | 1011.7 |
| 20260507041612 | 83 | 333 | 0.0 | 2.6 | 0.00 | 0.00 | 0.00 | 84 | 1011.7 |
| 20260507041100 | 83 | 312 | 0.9 | 2.6 | 0.00 | 0.00 | 0.00 | 84 | 1011.6 |
| 20260507040600 | 83 | 300 | 0.0 | 2.6 | 0.00 | 0.00 | 0.00 | 84 | 1011.6 |
| 20260507040108 | 83 | 317 | 0.9 | 2.6 | 0.00 | 0.00 | 0.00 | 84 | 1011.5 |
| 20260507035600 | 83 | 311 | 0.0 | 2.6 | 0.00 | 0.00 | 0.00 | 84 | 1011.4 |
| 20260507035100 | 83 | 360 | 0.9 | 2.6 | 0.00 | 0.00 | 0.00 | 84 | 1011.4 |
| 20260507034620 | 83 | 328 | 0.9 | 3.5 | 0.00 | 0.00 | 0.00 | 84 | 1011.2 |
| 20260507034102 | 83 | 271 | 1.7 | 3.5 | 0.00 | 0.00 | 0.00 | 84 | 1011.2 |
| 20260507033600 | 83 | 278 | 0.9 | 4.3 | 0.00 | 0.00 | 0.00 | 83 | 1011.1 |
| 20260507033108 | 83 | 332 | 2.6 | 4.3 | 0.00 | 0.00 | 0.00 | 83 | 1011.1 |
| 20260507032600 | 83 | 323 | 2.6 | 4.3 | 0.00 | 0.00 | 0.00 | 83 | 1011.0 |
| 20260507032100 | 83 | 330 | 1.7 | 3.5 | 0.00 | 0.00 | 0.00 | 83 | 1011.0 |
| 20260507031600 | 83 | 322 | 0.9 | 3.5 | 0.00 | 0.00 | 0.00 | 83 | 1011.0 |
| 20260507031102 | 83 | 290 | 0.9 | 3.5 | 0.00 | 0.00 | 0.00 | 83 | 1011.0 |
| 20260507030604 | 83 | 340 | 1.7 | 3.5 | 0.00 | 0.00 | 0.00 | 83 | 1011.0 |
| 20260507030105 | 83 | 348 | 0.9 | 3.5 | 0.00 | 0.00 | 0.00 | 82 | 1010.9 |
| 20260507030000 | 84 | 9 | 0.9 | 3.5 | 0.00 | 0.00 | 0.00 | 82 | 1011.0 |
| 20260507025559 | 83 | 5 | 1.7 | 5.2 | 0.00 | 0.00 | 0.00 | 82 | 1010.9 |
| 20260507025101 | 84 | 316 | 2.6 | 5.2 | 0.00 | 0.00 | 0.00 | 82 | 1011.0 |
| 20260507024605 | 84 | 360 | 2.6 | 4.3 | 0.00 | 0.00 | 0.00 | 82 | 1011.0 |
| 20260507024100 | 84 | 345 | 2.6 | 4.3 | 0.00 | 0.00 | 0.00 | 82 | 1010.9 |
| 20260507023600 | 84 | 339 | 2.6 | 4.3 | 0.00 | 0.00 | 0.00 | 82 | 1011.1 |
| 20260507023059 | 84 | 9 | 1.7 | 4.3 | 0.00 | 0.00 | 0.00 | 82 | 1011.0 |
| 20260507022600 | 84 | 309 | 1.7 | 4.3 | 0.00 | 0.00 | 0.00 | 82 | 1011.0 |
| 20260507022101 | 84 | 299 | 1.7 | 4.3 | 0.00 | 0.00 | 0.00 | 81 | 1011.0 |
| 20260507021608 | 84 | 313 | 1.7 | 5.2 | 0.00 | 0.00 | 0.00 | 82 | 1010.9 |
| 20260507021059 | 84 | 316 | 2.6 | 5.2 | 0.00 | 0.00 | 0.00 | 82 | 1011.0 |
| 20260507020559 | 84 | 320 | 2.6 | 4.3 | 0.00 | 0.00 | 0.00 | 82 | 1011.0 |
| 20260507020002 | 84 | 287 | 0.9 | 6.1 | 0.00 | 0.00 | 0.00 | 82 | 1011.0 |
| 20260507015559 | 84 | 325 | 2.6 | 6.1 | 0.00 | 0.00 | 0.00 | 82 | 1011.0 |
| 20260507015500 | 84 | 252 | 2.6 | 6.1 | 0.00 | 0.00 | 0.00 | 81 | 1010.9 |
| 20260507015101 | 84 | 317 | 2.6 | 5.2 | 0.00 | 0.00 | 0.00 | 82 | 1011.0 |
| 20260507014600 | 84 | 329 | 0.9 | 5.2 | 0.00 | 0.00 | 0.00 | 82 | 1010.8 |
| 20260507014103 | 84 | 331 | 1.7 | 4.3 | 0.00 | 0.00 | 0.00 | 82 | 1010.9 |
| 20260507013601 | 84 | 339 | 0.9 | 5.2 | 0.00 | 0.00 | 0.00 | 82 | 1010.9 |
| 20260507013116 | 84 | 274 | 1.7 | 6.1 | 0.00 | 0.00 | 0.00 | 82 | 1010.9 |
| 20260507012601 | 84 | 323 | 1.7 | 6.1 | 0.00 | 0.00 | 0.00 | 81 | 1010.9 |
| 20260507012100 | 84 | 294 | 0.9 | 6.1 | 0.00 | 0.00 | 0.00 | 81 | 1010.7 |
| 20260507011600 | 84 | 267 | 0.9 | 6.1 | 0.00 | 0.00 | 0.00 | 81 | 1010.6 |
| 20260507011100 | 84 | 250 | 1.7 | 5.2 | 0.00 | 0.00 | 0.00 | 81 | 1010.6 |
| 20260507010600 | 84 | 306 | 0.9 | 7.8 | 0.00 | 0.00 | 0.00 | 81 | 1010.6 |
| 20260507010003 | 84 | 273 | 3.5 | 7.8 | 0.00 | 0.00 | 0.00 | 81 | 1010.6 |
| 20260507005605 | 84 | 296 | 2.6 | 7.0 | 0.00 | 0.00 | 0.00 | 81 | 1010.6 |
| 20260507005059 | 84 | 269 | 2.6 | 6.1 | 0.00 | 0.00 | 0.00 | 81 | 1010.4 |
| 20260507004600 | 84 | 303 | 0.9 | 6.1 | 0.00 | 0.00 | 0.00 | 81 | 1010.3 |
| 20260507004059 | 84 | 255 | 1.7 | 6.1 | 0.00 | 0.00 | 0.00 | 81 | 1010.5 |
| 20260507003603 | 84 | 275 | 1.7 | 7.0 | 0.00 | 0.00 | 0.00 | 81 | 1010.4 |
| 20260507003100 | 84 | 257 | 2.6 | 7.0 | 0.00 | 0.00 | 0.00 | 81 | 1010.2 |
| 20260507002559 | 85 | 308 | 1.7 | 7.0 | 0.00 | 0.00 | 0.00 | 81 | 1010.1 |
| 20260507002100 | 85 | 315 | 2.6 | 7.0 | 0.00 | 0.00 | 0.00 | 81 | 1010.1 |
| 20260507001613 | 85 | 9 | 2.6 | 7.0 | 0.00 | 0.00 | 0.00 | 81 | 1010.0 |
| 20260507001059 | 85 | 302 | 1.7 | 7.0 | 0.00 | 0.00 | 0.00 | 81 | 1010.0 |
| 20260507000559 | 85 | 271 | 2.6 | 8.7 | 0.00 | 0.00 | 0.00 | 81 | 1010.0 |
| 20260507000002 | 85 | 256 | 2.6 | 8.7 | 0.00 | 0.00 | 0.00 | 80 | 1009.9 |
| 20260506235600 | 85 | 277 | 2.6 | 7.8 | 0.00 | 0.00 | 0.00 | 81 | 1009.7 |
| 20260506235100 | 86 | 326 | 4.3 | 7.8 | 0.00 | 0.00 | 0.00 | 80 | 1009.6 |
| 20260506234608 | 86 | 249 | 2.6 | 7.8 | 0.00 | 0.00 | 0.00 | 80 | 1009.6 |
| 20260506234102 | 85 | 260 | 2.6 | 7.8 | 0.00 | 0.00 | 0.00 | 80 | 1009.6 |
| 20260506233600 | 85 | 279 | 3.5 | 7.8 | 0.00 | 0.00 | 0.00 | 79 | 1009.7 |
| 20260506233109 | 86 | 296 | 3.5 | 7.8 | 0.00 | 0.00 | 0.00 | 78 | 1009.7 |
| 20260506232600 | 86 | 298 | 4.3 | 10.4 | 0.00 | 0.00 | 0.00 | 78 | 1009.6 |
| 20260506232101 | 86 | 210 | 2.6 | 10.4 | 0.00 | 0.00 | 0.00 | 78 | 1009.6 |
| 20260506231600 | 86 | 298 | 4.3 | 9.6 | 0.00 | 0.00 | 0.00 | 78 | 1009.6 |
| 20260506231100 | 86 | 261 | 4.3 | 8.7 | 0.00 | 0.00 | 0.00 | 77 | 1009.5 |
| 20260506230601 | 87 | 286 | 4.3 | 7.8 | 0.00 | 0.00 | 0.00 | 77 | 1009.6 |
| 20260506230501 | 87 | 267 | 3.5 | 7.8 | 0.00 | 0.00 | 0.00 | 77 | 1009.6 |
| 20260506225601 | 87 | 346 | 2.6 | 7.8 | 0.00 | 0.00 | 0.00 | 78 | 1009.6 |
| 20260506225059 | 87 | 315 | 5.2 | 7.8 | 0.00 | 0.00 | 0.00 | 78 | 1009.6 |
| 20260506224613 | 87 | 274 | 2.6 | 8.7 | 0.00 | 0.00 | 0.00 | 78 | 1009.7 |
| 20260506224058 | 87 | 250 | 4.3 | 8.7 | 0.00 | 0.00 | 0.00 | 78 | 1009.6 |
| 20260506223558 | 87 | 298 | 2.6 | 7.8 | 0.00 | 0.00 | 0.00 | 78 | 1009.7 |
| 20260506223103 | 87 | 270 | 3.5 | 8.7 | 0.00 | 0.00 | 0.00 | 78 | 1009.6 |
| 20260506222559 | 87 | 277 | 4.3 | 9.6 | 0.00 | 0.00 | 0.00 | 78 | 1009.7 |
| 20260506222059 | 86 | 255 | 4.3 | 10.4 | 0.00 | 0.00 | 0.00 | 79 | 1009.7 |
| 20260506221559 | 86 | 271 | 7.0 | 9.6 | 0.00 | 0.00 | 0.00 | 78 | 1009.6 |
| 20260506221058 | 87 | 251 | 2.6 | 7.0 | 0.00 | 0.00 | 0.00 | 80 | 1009.7 |
| 20260506220558 | 87 | 268 | 5.2 | 7.8 | 0.00 | 0.00 | 0.00 | 79 | 1009.7 |
| 20260506220110 | 87 | 267 | 2.6 | 8.7 | 0.00 | 0.00 | 0.00 | 80 | 1009.6 |
| 20260506215600 | 86 | 311 | 4.3 | 8.7 | 0.00 | 0.00 | 0.00 | 80 | 1009.6 |
| 20260506215059 | 86 | 293 | 3.5 | 7.8 | 0.00 | 0.00 | 0.00 | 80 | 1009.6 |
| 20260506214559 | 86 | 275 | 5.2 | 7.8 | 0.00 | 0.00 | 0.00 | 80 | 1009.6 |
| 20260506214058 | 86 | 274 | 5.2 | 8.7 | 0.00 | 0.00 | 0.00 | 80 | 1009.6 |
| 20260506213603 | 86 | 296 | 5.2 | 8.7 | 0.00 | 0.00 | 0.00 | 81 | 1009.6 |
| 20260506213059 | 86 | 275 | 6.1 | 8.7 | 0.00 | 0.00 | 0.00 | 80 | 1009.6 |
| 20260506212558 | 86 | 273 | 6.1 | 8.7 | 0.00 | 0.00 | 0.00 | 80 | 1009.6 |
| 20260506212059 | 86 | 267 | 4.3 | 7.8 | 0.00 | 0.00 | 0.00 | 80 | 1009.6 |
| 20260506211559 | 86 | 255 | 5.2 | 9.6 | 0.00 | 0.00 | 0.00 | 79 | 1009.6 |
| 20260506211058 | 86 | 245 | 5.2 | 9.6 | 0.00 | 0.00 | 0.00 | 79 | 1009.8 |
| 20260506210559 | 87 | 265 | 4.3 | 7.8 | 0.00 | 0.00 | 0.00 | 78 | 1009.9 |
| 20260506210100 | 87 | 265 | 2.6 | 7.8 | 0.00 | 0.00 | 0.00 | 78 | 1009.9 |
| 20260506210001 | 87 | 203 | 2.6 | 7.8 | 0.00 | 0.00 | 0.00 | 78 | 1009.9 |
| 20260506205600 | 88 | 267 | 5.2 | 7.8 | 0.00 | 0.00 | 0.00 | 76 | 1009.9 |
| 20260506205101 | 88 | 276 | 1.7 | 6.1 | 0.00 | 0.00 | 0.00 | 76 | 1009.9 |
| 20260506204600 | 88 | 257 | 3.5 | 6.1 | 0.00 | 0.00 | 0.00 | 76 | 1009.9 |
| 20260506204100 | 88 | 252 | 1.7 | 6.1 | 0.00 | 0.00 | 0.00 | 76 | 1009.9 |
| 20260506203604 | 88 | 238 | 2.6 | 7.8 | 0.00 | 0.00 | 0.00 | 76 | 1009.9 |
| 20260506203102 | 88 | 257 | 2.6 | 7.8 | 0.00 | 0.00 | 0.00 | 76 | 1010.0 |
| 20260506202600 | 88 | 217 | 2.6 | 7.8 | 0.00 | 0.00 | 0.00 | 76 | 1010.1 |
| 20260506202100 | 88 | 211 | 2.6 | 7.8 | 0.00 | 0.00 | 0.00 | 76 | 1010.1 |
| 20260506201600 | 88 | 192 | 2.6 | 7.0 | 0.00 | 0.00 | 0.00 | 77 | 1010.1 |
| 20260506201100 | 87 | 248 | 3.5 | 7.8 | 0.00 | 0.00 | 0.00 | 77 | 1010.0 |
| 20260506200603 | 87 | 256 | 2.6 | 7.8 | 0.00 | 0.00 | 0.00 | 77 | 1010.1 |
| 20260506200109 | 87 | 219 | 4.3 | 7.0 | 0.00 | 0.00 | 0.00 | 77 | 1010.1 |
| 20260506195559 | 87 | 251 | 3.5 | 7.0 | 0.00 | 0.00 | 0.00 | 77 | 1010.2 |
| 20260506195058 | 88 | 255 | 1.7 | 7.0 | 0.00 | 0.00 | 0.00 | 77 | 1010.4 |
| 20260506194601 | 87 | 155 | 1.7 | 7.0 | 0.00 | 0.00 | 0.00 | 78 | 1010.4 |
| 20260506194058 | 87 | 267 | 3.5 | 6.1 | 0.00 | 0.00 | 0.00 | 78 | 1010.4 |
| 20260506193558 | 87 | 273 | 2.6 | 7.0 | 0.00 | 0.00 | 0.00 | 78 | 1010.4 |
| 20260506193110 | 87 | 195 | 2.6 | 7.0 | 0.00 | 0.00 | 0.00 | 79 | 1010.6 |
| 20260506192558 | 87 | 219 | 5.2 | 7.8 | 0.00 | 0.00 | 0.00 | 78 | 1010.5 |
| 20260506192100 | 87 | 251 | 3.5 | 7.8 | 0.00 | 0.00 | 0.00 | 78 | 1010.6 |
| 20260506191559 | 87 | 193 | 4.3 | 7.0 | 0.00 | 0.00 | 0.00 | 78 | 1010.8 |
| 20260506191059 | 87 | 209 | 4.3 | 7.0 | 0.00 | 0.00 | 0.00 | 77 | 1010.8 |
| 20260506190559 | 87 | 207 | 3.5 | 8.7 | 0.00 | 0.00 | 0.00 | 78 | 1010.8 |
| 20260506190059 | 86 | 214 | 5.2 | 8.7 | 0.00 | 0.00 | 0.00 | 78 | 1010.8 |
| 20260506185559 | 86 | 188 | 5.2 | 7.0 | 0.00 | 0.00 | 0.00 | 77 | 1010.9 |
| 20260506185058 | 87 | 196 | 3.5 | 7.0 | 0.00 | 0.00 | 0.00 | 78 | 1011.0 |
| 20260506184559 | 86 | 220 | 3.5 | 7.8 | 0.00 | 0.00 | 0.00 | 79 | 1011.0 |
| 20260506184058 | 86 | 197 | 6.1 | 7.8 | 0.00 | 0.00 | 0.00 | 78 | 1011.2 |
| 20260506183557 | 86 | 212 | 5.2 | 7.8 | 0.00 | 0.00 | 0.00 | 78 | 1011.2 |
| 20260506183102 | 86 | 161 | 4.3 | 7.8 | 0.00 | 0.00 | 0.00 | 78 | 1011.3 |
| 20260506182558 | 86 | 194 | 4.3 | 7.8 | 0.00 | 0.00 | 0.00 | 79 | 1011.3 |
| 20260506182058 | 86 | 200 | 4.3 | 7.0 | 0.00 | 0.00 | 0.00 | 79 | 1011.3 |
| 20260506181625 | 86 | 170 | 4.3 | 7.8 | 0.00 | 0.00 | 0.00 | 78 | 1011.3 |
| 20260506181058 | 86 | 207 | 3.5 | 7.8 | 0.00 | 0.00 | 0.00 | 79 | 1011.3 |
| 20260506180559 | 86 | 206 | 5.2 | 7.8 | 0.00 | 0.00 | 0.00 | 79 | 1011.4 |
| 20260506180106 | 86 | 204 | 4.3 | 8.7 | 0.00 | 0.00 | 0.00 | 79 | 1011.5 |
| 20260506180001 | 86 | 184 | 4.3 | 8.7 | 0.00 | 0.00 | 0.00 | 78 | 1011.5 |
| 20260506175558 | 86 | 213 | 5.2 | 8.7 | 0.00 | 0.00 | 0.00 | 79 | 1011.4 |
| 20260506175103 | 86 | 187 | 5.2 | 8.7 | 0.00 | 0.00 | 0.00 | 78 | 1011.4 |
| 20260506174558 | 86 | 159 | 5.2 | 8.7 | 0.00 | 0.00 | 0.00 | 79 | 1011.4 |
| 20260506174058 | 86 | 194 | 6.1 | 8.7 | 0.00 | 0.00 | 0.00 | 78 | 1011.4 |
| 20260506173558 | 86 | 197 | 4.3 | 7.8 | 0.00 | 0.00 | 0.00 | 78 | 1011.6 |
| 20260506173129 | 86 | 188 | 4.3 | 7.8 | 0.00 | 0.00 | 0.00 | 77 | 1011.6 |
| 20260506172600 | 86 | 170 | 4.3 | 7.8 | 0.00 | 0.00 | 0.00 | 77 | 1011.7 |
| 20260506172058 | 86 | 194 | 5.2 | 7.8 | 0.00 | 0.00 | 0.00 | 77 | 1011.8 |
| 20260506171605 | 86 | 198 | 5.2 | 7.0 | 0.00 | 0.00 | 0.00 | 76 | 1011.9 |
| 20260506171058 | 86 | 217 | 4.3 | 7.0 | 0.00 | 0.00 | 0.00 | 75 | 1011.9 |
| 20260506170559 | 86 | 211 | 5.2 | 7.0 | 0.00 | 0.00 | 0.00 | 75 | 1011.8 |
| 20260506170109 | 86 | 238 | 3.5 | 6.1 | 0.00 | 0.00 | 0.00 | 76 | 1012.0 |
| 20260506165602 | 86 | 180 | 2.6 | 6.1 | 0.00 | 0.00 | 0.00 | 77 | 1012.0 |
| 20260506165058 | 85 | 215 | 4.3 | 7.0 | 0.00 | 0.00 | 0.00 | 77 | 1012.0 |
| 20260506164559 | 85 | 212 | 4.3 | 7.0 | 0.00 | 0.00 | 0.00 | 78 | 1012.1 |
| 20260506164100 | 85 | 205 | 3.5 | 6.1 | 0.00 | 0.00 | 0.00 | 79 | 1012.1 |
| 20260506163559 | 85 | 236 | 3.5 | 6.1 | 0.00 | 0.00 | 0.00 | 80 | 1012.2 |
| 20260506163059 | 85 | 181 | 2.6 | 6.1 | 0.00 | 0.00 | 0.00 | 80 | 1012.2 |
| 20260506162558 | 85 | 175 | 2.6 | 6.1 | 0.00 | 0.00 | 0.00 | 80 | 1012.1 |
| 20260506162100 | 85 | 187 | 3.5 | 6.1 | 0.00 | 0.00 | 0.00 | 80 | 1012.0 |
| 20260506161601 | 85 | 232 | 2.6 | 5.2 | 0.00 | 0.00 | 0.00 | 80 | 1012.1 |
| 20260506161058 | 85 | 223 | 2.6 | 5.2 | 0.00 | 0.00 | 0.00 | 80 | 1012.1 |
| 20260506160559 | 85 | 225 | 2.6 | 5.2 | 0.00 | 0.00 | 0.00 | 80 | 1012.1 |
| 20260506160117 | 85 | 173 | 2.6 | 5.2 | 0.00 | 0.00 | 0.00 | 80 | 1012.0 |
| 20260506155558 | 84 | 192 | 4.3 | 5.2 | 0.00 | 0.00 | 0.00 | 79 | 1012.0 |
| 20260506155059 | 85 | 214 | 3.5 | 5.2 | 0.00 | 0.00 | 0.00 | 79 | 1011.9 |
| 20260506154559 | 85 | 211 | 2.6 | 5.2 | 0.00 | 0.00 | 0.00 | 80 | 1012.0 |
| 20260506154058 | 84 | 187 | 2.6 | 5.2 | 0.00 | 0.00 | 0.00 | 80 | 1012.1 |
| 20260506153559 | 85 | 199 | 2.6 | 4.3 | 0.00 | 0.00 | 0.00 | 80 | 1012.1 |
| 20260506153059 | 84 | 219 | 2.6 | 4.3 | 0.00 | 0.00 | 0.00 | 79 | 1012.3 |
| 20260506152558 | 85 | 186 | 1.7 | 3.5 | 0.00 | 0.00 | 0.00 | 80 | 1012.3 |
| 20260506152058 | 85 | 232 | 2.6 | 3.5 | 0.00 | 0.00 | 0.00 | 79 | 1012.3 |
| 20260506151600 | 85 | 273 | 1.7 | 3.5 | 0.00 | 0.00 | 0.00 | 79 | 1012.2 |
| 20260506151058 | 84 | 254 | 1.7 | 2.6 | 0.00 | 0.00 | 0.00 | 79 | 1012.0 |
| 20260506150558 | 84 | 240 | 0.9 | 3.5 | 0.00 | 0.00 | 0.00 | 80 | 1012.1 |
| 20260506150104 | 84 | 265 | 0.9 | 3.5 | 0.00 | 0.00 | 0.00 | 81 | 1012.2 |
| 20260506145558 | 84 | 265 | 0.9 | 3.5 | 0.00 | 0.00 | 0.00 | 80 | 1012.1 |
| 20260506145157 | 84 | 267 | 1.7 | 3.5 | 0.00 | 0.00 | 0.00 | 80 | 1011.9 |
| 20260506144600 | 84 | 245 | 2.6 | 4.3 | 0.00 | 0.00 | 0.00 | 80 | 1012.0 |
| 20260506144058 | 84 | 255 | 2.6 | 5.2 | 0.00 | 0.00 | 0.00 | 80 | 1011.9 |
| 20260506143558 | 84 | 221 | 0.9 | 2.6 | 0.00 | 0.00 | 0.00 | 79 | 1011.8 |
| 20260506143059 | 84 | 294 | 1.7 | 4.3 | 0.00 | 0.00 | 0.00 | 79 | 1011.8 |
| 20260506142559 | 84 | 355 | 1.7 | 4.3 | 0.00 | 0.00 | 0.00 | 80 | 1011.7 |
| 20260506142058 | 83 | 338 | 1.7 | 3.5 | 0.00 | 0.00 | 0.00 | 81 | 1011.5 |
| 20260506141559 | 83 | 315 | 2.6 | 3.5 | 0.00 | 0.00 | 0.00 | 81 | 1011.5 |
| 20260506141058 | 83 | 355 | 1.7 | 2.6 | 0.00 | 0.00 | 0.00 | 81 | 1011.5 |
| 20260506140558 | 83 | 340 | 0.0 | 3.5 | 0.00 | 0.00 | 0.00 | 82 | 1011.5 |
| 20260506140058 | 83 | 9 | 0.0 | 4.3 | 0.00 | 0.00 | 0.00 | 82 | 1011.5 |
| 20260506135557 | 83 | 338 | 1.7 | 4.3 | 0.00 | 0.00 | 0.00 | 82 | 1011.4 |
| 20260506135059 | 83 | 360 | 2.6 | 4.3 | 0.00 | 0.00 | 0.00 | 82 | 1011.3 |
| 20260506134559 | 83 | 5 | 0.9 | 4.3 | 0.00 | 0.00 | 0.00 | 82 | 1011.3 |
| 20260506134059 | 83 | 42 | 1.7 | 4.3 | 0.00 | 0.00 | 0.00 | 82 | 1011.4 |
| 20260506133559 | 83 | 42 | 3.5 | 4.3 | 0.00 | 0.00 | 0.00 | 81 | 1011.2 |
| 20260506133114 | 82 | 30 | 1.7 | 5.2 | 0.00 | 0.00 | 0.00 | 81 | 1011.1 |
| 20260506132558 | 82 | 50 | 2.6 | 5.2 | 0.00 | 0.00 | 0.00 | 81 | 1011.1 |
| 20260506132058 | 82 | 44 | 3.5 | 4.3 | 0.00 | 0.00 | 0.00 | 81 | 1011.1 |
| 20260506131604 | 82 | 19 | 2.6 | 4.3 | 0.00 | 0.00 | 0.00 | 81 | 1011.0 |
| 20260506131058 | 82 | 35 | 1.7 | 4.3 | 0.00 | 0.00 | 0.00 | 81 | 1011.1 |
| 20260506130559 | 82 | 34 | 2.6 | 5.2 | 0.00 | 0.00 | 0.00 | 81 | 1011.1 |
| 20260506130058 | 82 | 31 | 2.6 | 5.2 | 0.00 | 0.00 | 0.00 | 81 | 1011.0 |
| 20260506125558 | 82 | 36 | 2.6 | 4.3 | 0.00 | 0.00 | 0.00 | 80 | 1011.0 |
| 20260506125058 | 82 | 44 | 2.6 | 4.3 | 0.00 | 0.00 | 0.00 | 80 | 1010.9 |
| 20260506124601 | 82 | 46 | 2.6 | 3.5 | 0.00 | 0.00 | 0.00 | 80 | 1010.9 |
| 20260506124058 | 82 | 40 | 1.7 | 3.5 | 0.00 | 0.00 | 0.00 | 80 | 1010.9 |
| 20260506123602 | 82 | 31 | 1.7 | 3.5 | 0.00 | 0.00 | 0.00 | 80 | 1010.9 |
| 20260506123058 | 81 | 27 | 1.7 | 3.5 | 0.00 | 0.00 | 0.00 | 80 | 1010.9 |
| 20260506122558 | 81 | 44 | 0.9 | 2.6 | 0.00 | 0.00 | 0.00 | 80 | 1010.8 |
| 20260506122057 | 81 | 26 | 1.7 | 3.5 | 0.00 | 0.00 | 0.00 | 80 | 1010.8 |
| 20260506121558 | 81 | 36 | 1.7 | 2.6 | 0.00 | 0.00 | 0.00 | 81 | 1010.8 |
| 20260506121058 | 80 | 49 | 0.0 | 0.0 | 0.00 | 0.00 | 0.00 | 81 | 1010.7 |
| 20260506120600 | 80 | 36 | 0.0 | 0.0 | 0.00 | 0.00 | 0.00 | 81 | 1010.7 |
| 20260506120058 | 80 | 355 | 0.0 | 0.0 | 0.00 | 0.00 | 0.00 | 80 | 1010.6 |
| 20260506115601 | 80 | 338 | 0.0 | 0.0 | 0.00 | 0.00 | 0.00 | 80 | 1010.5 |
| 20260506115056 | 80 | 20 | 0.0 | 0.0 | 0.00 | 0.00 | 0.00 | 80 | 1010.5 |
| 20260506114558 | 80 | 33 | 0.0 | 0.0 | 0.00 | 0.00 | 0.00 | 80 | 1010.4 |
| 20260506114057 | 81 | 355 | 0.0 | 0.0 | 0.00 | 0.00 | 0.00 | 80 | 1010.3 |
| 20260506113557 | 81 | 53 | 0.0 | 0.0 | 0.00 | 0.00 | 0.00 | 79 | 1010.2 |
| 20260506113057 | 81 | 53 | 0.0 | 0.0 | 0.00 | 0.00 | 0.00 | 79 | 1010.2 |
| 20260506112559 | 81 | 53 | 0.0 | 0.0 | 0.00 | 0.00 | 0.00 | 79 | 1010.1 |
| 20260506112056 | 81 | 53 | 0.0 | 0.0 | 0.00 | 0.00 | 0.00 | 79 | 1010.0 |
| 20260506111557 | 81 | 53 | 0.0 | 0.0 | 0.00 | 0.00 | 0.00 | 79 | 1009.8 |
| 20260506111057 | 80 | 53 | 0.0 | 0.0 | 0.00 | 0.00 | 0.00 | 79 | 1009.8 |
| 20260506110557 | 80 | 53 | 0.0 | 0.0 | 0.00 | 0.00 | 0.00 | 79 | 1009.8 |
| 20260506110104 | 80 | 69 | 0.0 | 0.0 | 0.00 | 0.00 | 0.00 | 79 | 1009.7 |
| 20260506105557 | 80 | 80 | 0.0 | 0.0 | 0.00 | 0.00 | 0.00 | 80 | 1009.6 |
| 20260506105057 | 80 | 55 | 0.0 | 0.0 | 0.00 | 0.00 | 0.00 | 80 | 1009.4 |
| 20260506104559 | 80 | 345 | 0.0 | 0.0 | 0.00 | 0.00 | 0.00 | 81 | 1009.4 |
| 20260506104057 | 80 | 345 | 0.0 | 0.0 | 0.00 | 0.00 | 0.00 | 81 | 1009.4 |
| 20260506103557 | 80 | 345 | 0.0 | 0.0 | 0.00 | 0.00 | 0.00 | 80 | 1009.4 |
| 20260506103057 | 80 | 345 | 0.0 | 0.0 | 0.00 | 0.00 | 0.00 | 80 | 1009.4 |
| 20260506102558 | 80 | 343 | 0.0 | 0.0 | 0.00 | 0.00 | 0.00 | 80 | 1009.3 |
| 20260506102101 | 80 | 355 | 0.0 | 0.0 | 0.00 | 0.00 | 0.00 | 81 | 1009.3 |
| 20260506101556 | 80 | 355 | 0.0 | 0.0 | 0.00 | 0.00 | 0.00 | 81 | 1009.4 |
| 20260506101057 | 80 | 355 | 0.0 | 0.0 | 0.00 | 0.00 | 0.00 | 81 | 1009.4 |
| 20260506100557 | 80 | 355 | 0.0 | 0.0 | 0.00 | 0.00 | 0.00 | 81 | 1009.6 |
| 20260506100057 | 80 | 347 | 0.0 | 0.0 | 0.00 | 0.00 | 0.00 | 81 | 1009.6 |
| 20260506095558 | 81 | 350 | 0.0 | 0.0 | 0.00 | 0.00 | 0.00 | 81 | 1009.6 |
| 20260506095058 | 81 | 338 | 0.0 | 0.0 | 0.00 | 0.00 | 0.00 | 81 | 1009.7 |
| 20260506094622 | 81 | 79 | 0.0 | 0.0 | 0.00 | 0.00 | 0.00 | 81 | 1009.7 |
| 20260506094058 | 81 | 67 | 0.0 | 0.0 | 0.00 | 0.00 | 0.00 | 82 | 1009.7 |
| 20260506093558 | 81 | 36 | 0.0 | 0.0 | 0.00 | 0.00 | 0.00 | 83 | 1009.7 |
| 20260506093059 | 81 | 355 | 0.0 | 0.0 | 0.00 | 0.00 | 0.00 | 83 | 1009.7 |
| 20260506092559 | 81 | 355 | 0.0 | 0.0 | 0.00 | 0.00 | 0.00 | 83 | 1009.8 |
| 20260506092058 | 81 | 355 | 0.0 | 0.0 | 0.00 | 0.00 | 0.00 | 84 | 1009.8 |
| 20260506091558 | 81 | 355 | 0.0 | 0.0 | 0.00 | 0.00 | 0.00 | 84 | 1009.8 |
| 20260506091100 | 81 | 342 | 0.0 | 0.0 | 0.00 | 0.00 | 0.00 | 84 | 1009.9 |
| 20260506090558 | 81 | 5 | 0.0 | 0.0 | 0.00 | 0.00 | 0.00 | 84 | 1009.9 |
| 20260506090059 | 81 | 349 | 0.0 | 0.0 | 0.00 | 0.00 | 0.00 | 84 | 1010.0 |